Skip Page Navigation
NASA JPL Caltech
NASA Logo - Jet Propulsion Laboratory + View the NASA Portal
+ Near-Earth Object (NEO) Program
Search JPL
JPL Home Earth Solar System Stars & Galaxies Technology
JPL Solar System Dynamics
BODIES ORBITS EPHEMERIDES TOOLS PHYSICAL DATA DISCOVERY FAQ SITE MAP
JPL Small-Body Database Browser
Search: [ help ]  
23284 Celik (2000 YD118)
Classification: Main-belt Asteroid          SPK-ID: 2023284
Ephemeris | Orbit Diagram | Orbital Elements | Physical Parameters | Discovery Circumstances | Close-Approach Data ]

[ show orbit diagram ]
Orbital Elements at Epoch 2456800.5 (2014-May-23.0) TDB
Reference: JPL 4 (heliocentric ecliptic J2000)
 Element Value Uncertainty (1-sigma)   Units 
e .1669674718336716 5.419e-08  
a 2.434856855304667 1.797e-08 AU
q 2.028314961897563 1.3903e-07 AU
i 3.232292789130257 5.9567e-06 deg
node 69.51606100981523 0.00013447 deg
peri 190.0996606004983 0.00013711 deg
M 69.36355925484881 2.4073e-05 deg
tp 2456533.114749250451
(2013-Aug-28.61474925)
9.2507e-05 JED
period 1387.741507268586
3.80
1.5363e-05
4.206e-08
d
yr
n .2594143059888493 2.8718e-09 deg/d
Q 2.841398748711772 2.097e-08 AU
  Orbit Determination Parameters
   # obs. used (total)      645  
   data-arc span      15413 days (42.20 yr)  
   first obs. used      1971-04-16  
   last obs. used      2013-06-27  
   planetary ephem.      DE431  
   SB-pert. ephem.      SB431-BIG16  
   condition code      0  
   fit RMS      .54738  
   data source      ORB  
   producer      Otto Matic  
   solution date      2013-Aug-05 20:21:11  

Additional Information
 Earth MOID = 1.01294 AU 
 T_jup = 3.484 
[ show covariance matrix ]

Ephemeris | Orbit Diagram | Orbital Elements | Physical Parameters | Discovery Circumstances | Close-Approach Data ]

Physical Parameter Table
Parameter Symbol Value Units Sigma Reference Notes
absolute magnitude H 15.0 mag n/a MPO266077  

23284 Celik           Discovered 2000 Dec. 30 by the Lincoln Laboratory Near-Earth Asteroid Research Team in Socorro.
Burak Celik (b. 1989) was awarded first place in the 2007 Intel International Science and Engineering Fair for his chemistry team project. He attends the FMV Isik High School, Istanbul, Turkey.
NOTE: some special characters may not display properly (any characters within {} are an attempt to place the proper accent above a character)
Reference: 20070828/MPCPages.arcLast Updated: 2007-08-30

[ show close-approach data ]
Alternate Designations
 2000 YD118 = 1998 MY20 = 1999 VL176 = 4823 T-1 
Ephemeris | Orbit Diagram | Orbital Elements | Physical Parameters | Discovery Circumstances | Close-Approach Data ]
ABOUT SSD CREDITS/AWARDS PRIVACY/COPYRIGHT GLOSSARY LINKS
FirstGov 2014-Apr-20 21:01 UT
(server date/time)  
NASA Home Page
Site Manager:   Donald K. Yeomans
Webmaster  Alan B. Chamberlin